Retour au catalogue

STARLINK-37406

ActifCommunicationsVLEO
NORAD 69199·PAYLOAD·🇺🇸 United States

Lancé May 25, 2026 depuis Cape Canaveral Space Force Station

Loading…

Prochains Passages (prochaines 24 heures)

TLE

FraisSource: CelesTrak SupGP

Époque: Sep 14, 2026, 21:08 UTC

1 69199C 26114T   26257.88104167 -.00015045  00000+0 -44367-3 0  2575
2 69199  53.1572 139.9452 0001258  81.1782 301.7987 15.34457642    12

Suivez STARLINK-37406 en temps réel avec AllMySat

Download on the App Store